Weather History for Bowling Green, KY

Change the Weather History Date:

Friday, February 22, 2013

  Actual Average Record
Temperature  
Mean Temperature 51 °F 42 °F  
Max Temperature 61 °F 52 °F 74 °F (1922)
Min Temperature 40 °F 31 °F 0 °F (1963)
Degree Days  
Heating Degree Days 14 23  
Month to date heating degree days 553 571  
Since 1 July heating degree days 2754 3063  
Cooling Degree Days 0 0  
Month to date cooling degree days 0 0  
Year to date cooling degree days 0 0  
Moisture  
Dew Point 42 °F    
Average Humidity 74    
Maximum Humidity 96    
Minimum Humidity 51    
Precipitation  
Precipitation 0.01 in 0.14 in 1.87 in (1994)
Month to date precipitation 1.75 3.13  
Year to date precipitation 7.24 6.74  
Snow  
Snow 0.00 in 0.10 in 0.40 in (1989)
Month to date snowfall 1.0 2.9  
Since 1 July snowfall 1.3 7.4  
Snow Depth 0.00 in    
Sea Level Pressure  
Sea Level Pressure 29.95 in    
Wind  
Wind Speed 8 mph (WSW)    
Max Wind Speed 17 mph    
Max Gust Speed 22 mph    
Visibility 9 miles    
Events Rain    
T = Trace of Precipitation, MM = Missing Value Source: NWS Daily Summary

Daily Weather History Graph

Daily Weather History Graph

Search for Another Location

Airport:

Trip Planner

Search our weather history database for the weather conditions in past years. The results will help you decide how hot, cold, wet, or windy it might be!

Date:

Astronomy

Feb. 22, 2013 Rise Set
Actual Time 6:25 AM CST 5:33 PM CST
Civil Twilight 5:59 AM CST 5:59 PM CST
Nautical Twilight 5:29 AM CST 6:29 PM CST
Astronomical Twilight 4:59 AM CST 6:59 PM CST
Moon 2:46 PM CST (2/22) 4:07 AM CST (2/22)
Length of Visible Light 12h 00m
Length of Day
11h 07m
Waxing Gibbous, 90% of the Moon is Illuminated
Feb 22
Waxing Gibbous
Feb 25
Full
Mar 4
Last Quarter
Mar 11
New
Mar 19
First Quarter

Hourly Weather History & Observations

Time (CST) Temp. Windchill Dew Point Humidity Pressure Visibility Wind Dir Wind Speed Gust Speed Precip Events Conditions
12:06 AM 39.2 °F - 37.4 °F 93% 29.89 in 7.0 mi Calm Calm - 0.00 in Rain Light Rain
12:22 AM 39.2 °F 35.9 °F 37.4 °F 93% 29.88 in 10.0 mi East 4.6 mph - 0.00 in   Overcast
12:53 AM 39.9 °F 36.7 °F 39.0 °F 97% 29.88 in 10.0 mi East 4.6 mph - 0.00 in   Overcast
2:23 AM 42.8 °F - 39.2 °F 87% 29.86 in 2.5 mi Calm Calm - 0.01 in Rain Light Rain
2:29 AM 42.8 °F - 39.2 °F 87% 29.86 in 3.0 mi Calm Calm - 0.01 in Rain Light Rain
2:41 AM 42.8 °F - 39.2 °F 87% 29.86 in 2.5 mi Calm Calm - 0.01 in   Overcast
2:48 AM 42.8 °F - 39.2 °F 87% 29.86 in 3.0 mi Calm Calm - 0.01 in   Overcast
2:53 AM 42.1 °F - 41.0 °F 96% 29.87 in 3.0 mi Calm Calm - 0.01 in   Overcast
3:44 AM 44.6 °F - 42.8 °F 93% 29.87 in 3.0 mi Calm Calm - N/A   Overcast
3:53 AM 48.0 °F - 45.0 °F 89% 29.86 in 6.0 mi SSW 6.9 mph - N/A   Overcast
4:32 AM 48.2 °F - 46.4 °F 93% 29.88 in 10.0 mi SSW 10.4 mph - N/A   Overcast
4:53 AM 50.0 °F - 46.9 °F 89% 29.89 in 10.0 mi SSW 11.5 mph - N/A   Overcast
5:22 AM 50.0 °F - 46.4 °F 87% 29.89 in 10.0 mi SSW 11.5 mph - N/A   Overcast
5:53 AM 50.0 °F - 46.9 °F 89% 29.91 in 10.0 mi SSW 6.9 mph - N/A   Mostly Cloudy
6:39 AM 48.2 °F - 46.4 °F 93% 29.95 in 10.0 mi WSW 6.9 mph - N/A   Mostly Cloudy
6:53 AM 48.9 °F - 45.0 °F 86% 29.96 in 8.0 mi West 10.4 mph 18.4 mph N/A   Overcast
7:41 AM 48.2 °F - 42.8 °F 82% 29.97 in 10.0 mi WSW 9.2 mph - N/A   Scattered Clouds
7:53 AM 48.0 °F - 43.0 °F 83% 29.99 in 10.0 mi WSW 8.1 mph - N/A   Clear
8:22 AM 48.2 °F - 42.8 °F 82% 29.99 in 10.0 mi WSW 11.5 mph - N/A   Mostly Cloudy
8:53 AM 48.9 °F - 43.0 °F 80% 29.99 in 10.0 mi SW 11.5 mph - N/A   Overcast
9:53 AM 50.0 °F - 44.1 °F 80% 30.00 in 10.0 mi SW 11.5 mph - N/A   Overcast
10:31 AM 53.6 °F - 46.4 °F 77% 30.00 in 10.0 mi SW 11.5 mph - N/A   Overcast
10:43 AM 53.6 °F - 46.4 °F 77% 30.00 in 10.0 mi SW 13.8 mph - N/A   Mostly Cloudy
10:53 AM 53.1 °F - 45.0 °F 74% 30.01 in 10.0 mi WSW 10.4 mph 20.7 mph N/A   Overcast
11:01 AM 53.6 °F - 46.4 °F 77% 30.01 in 10.0 mi WSW 11.5 mph 19.6 mph N/A   Overcast
11:38 AM 53.6 °F - 44.6 °F 72% 30.00 in 10.0 mi West 9.2 mph - N/A   Overcast
11:53 AM 57.0 °F - 46.9 °F 69% 30.00 in 10.0 mi West 11.5 mph 18.4 mph N/A   Overcast
12:53 PM 57.9 °F - 46.0 °F 65% 29.98 in 10.0 mi West 12.7 mph 19.6 mph N/A   Partly Cloudy
1:53 PM 60.1 °F - 45.0 °F 57% 29.95 in 10.0 mi SW 9.2 mph - N/A   Overcast
2:53 PM 60.1 °F - 42.1 °F 51% 29.94 in 10.0 mi WSW 12.7 mph 21.9 mph N/A   Clear
3:53 PM 59.0 °F - 41.0 °F 51% 29.95 in 10.0 mi WSW 11.5 mph - N/A   Clear
4:53 PM 57.0 °F - 41.0 °F 55% 29.94 in 10.0 mi West 9.2 mph - N/A   Clear
5:53 PM 53.1 °F - 39.9 °F 61% 29.96 in 10.0 mi West 5.8 mph - N/A   Clear
6:53 PM 51.1 °F - 39.9 °F 66% 29.99 in 10.0 mi WNW 8.1 mph - N/A   Clear
7:53 PM 48.9 °F - 39.0 °F 69% 30.01 in 10.0 mi NNE 4.6 mph - N/A   Clear
8:53 PM 46.0 °F 43.1 °F 37.9 °F 73% 30.03 in 10.0 mi NW 5.8 mph - N/A   Clear
9:53 PM 44.1 °F 39.5 °F 36.0 °F 73% 30.04 in 10.0 mi WNW 8.1 mph - N/A   Clear
10:53 PM 42.1 °F 38.4 °F 35.1 °F 76% 30.04 in 10.0 mi West 5.8 mph - N/A   Clear
11:53 PM 41.0 °F 39.0 °F 34.0 °F 76% 30.05 in 10.0 mi WSW 3.5 mph - N/A   Clear